RON41 ANYN-NGTA

Flight info

Callsign RON41
Flight time 1h 3m
Altitude 35000
Route NI A578 BO
Aircraft B738/M-SDE2E3FGHIRWXY/LB1

Departure

Time 2026-05-07 05:29
Airport Nauru International Airport (ANYN)

Arrival

Time 2026-05-07 06:33
Airport Bonriki International Airport (NGTA)
Time Latitude Longitude Altitude Speed Heading
2026-05-07 05:17 -0.54444 166.91693 31 ft 0 kts 187°
2026-05-07 05:26 -0.54454 166.91685 31 ft 6 kts 224°
2026-05-07 05:26 -0.54529 166.91663 29 ft 17 kts 150°
2026-05-07 05:26 -0.54638 166.91771 29 ft 26 kts 128°
2026-05-07 05:27 -0.54769 166.91946 28 ft 36 kts 129°
2026-05-07 05:27 -0.54960 166.92166 24 ft 46 kts 131°
2026-05-07 05:27 -0.55182 166.92421 20 ft 45 kts 131°
2026-05-07 05:27 -0.55324 166.92604 17 ft 21 kts 105°
2026-05-07 05:28 -0.55352 166.92624 17 ft 4 kts 299°
2026-05-07 05:28 -0.55335 166.92600 17 ft 6 kts 306°
2026-05-07 05:28 -0.55147 166.92381 20 ft 80 kts 311°
2026-05-07 05:28 -0.54629 166.91775 30 ft 146 kts 311°
2026-05-07 05:29 -0.53922 166.90875 336 ft 174 kts 305°
2026-05-07 05:29 -0.53063 166.89961 900 ft 187 kts 325°
2026-05-07 05:29 -0.51993 166.89299 1781 ft 179 kts 333°
2026-05-07 05:29 -0.50790 166.88768 2221 ft 196 kts 343°
2026-05-07 05:30 -0.49434 166.88406 2762 ft 207 kts 350°
2026-05-07 05:30 -0.47945 166.88223 3290 ft 220 kts 358°
2026-05-07 05:30 -0.46338 166.88269 3799 ft 236 kts
2026-05-07 05:30 -0.44707 166.88750 4450 ft 244 kts 30°
2026-05-07 05:31 -0.43491 166.89906 5204 ft 247 kts 58°
2026-05-07 05:31 -0.42953 166.91542 5959 ft 252 kts 85°
2026-05-07 05:31 -0.43239 166.93233 6704 ft 256 kts 112°
2026-05-07 05:31 -0.44083 166.94812 7499 ft 258 kts 118°
2026-05-07 05:32 -0.44968 166.96368 8259 ft 261 kts 118°
2026-05-07 05:32 -0.45722 166.98064 8989 ft 266 kts 103°
2026-05-07 05:32 -0.45719 166.99907 9710 ft 272 kts 78°
2026-05-07 05:32 -0.45169 167.01778 10378 ft 281 kts 72°
2026-05-07 05:33 -0.44525 167.03647 10905 ft 294 kts 73°
2026-05-07 05:33 -0.43895 167.05646 11375 ft 309 kts 75°
2026-05-07 05:33 -0.43266 167.07756 11848 ft 324 kts 75°
2026-05-07 05:33 -0.42623 167.09963 12244 ft 340 kts 75°
2026-05-07 05:34 -0.41950 167.12285 12647 ft 355 kts 75°
2026-05-07 05:34 -0.41254 167.14673 13274 ft 361 kts 75°
2026-05-07 05:34 -0.40544 167.17099 13985 ft 365 kts 75°
2026-05-07 05:34 -0.39835 167.19522 14678 ft 367 kts 75°
2026-05-07 05:35 -0.39116 167.21976 15360 ft 370 kts 75°
2026-05-07 05:35 -0.38389 167.24460 16012 ft 374 kts 75°
2026-05-07 05:35 -0.37665 167.26930 16652 ft 376 kts 75°
2026-05-07 05:35 -0.36927 167.29454 17254 ft 379 kts 75°
2026-05-07 05:36 -0.36182 167.32002 17855 ft 382 kts 75°
2026-05-07 05:36 -0.35438 167.34546 18436 ft 385 kts 75°
2026-05-07 05:36 -0.34683 167.37129 18977 ft 388 kts 75°
2026-05-07 05:36 -0.33930 167.39706 19530 ft 391 kts 75°
2026-05-07 05:37 -0.33166 167.42317 20074 ft 393 kts 75°
2026-05-07 05:37 -0.32398 167.44943 20581 ft 397 kts 75°
2026-05-07 05:37 -0.31620 167.47600 21089 ft 399 kts 75°
2026-05-07 05:37 -0.30833 167.50291 21574 ft 403 kts 75°
2026-05-07 05:38 -0.30053 167.52959 22076 ft 404 kts 75°
2026-05-07 05:38 -0.29260 167.55675 22510 ft 409 kts 75°
2026-05-07 05:38 -0.28455 167.58426 23011 ft 411 kts 75°
2026-05-07 05:38 -0.27660 167.61148 23453 ft 414 kts 75°
2026-05-07 05:39 -0.26845 167.63937 23870 ft 419 kts 75°
2026-05-07 05:39 -0.26033 167.66713 24333 ft 421 kts 75°
2026-05-07 05:39 -0.25199 167.69563 24799 ft 424 kts 75°
2026-05-07 05:39 -0.24379 167.72363 25197 ft 427 kts 75°
2026-05-07 05:40 -0.23540 167.75233 25621 ft 431 kts 75°
2026-05-07 05:40 -0.22698 167.78117 26025 ft 434 kts 75°
2026-05-07 05:40 -0.21845 167.81035 26386 ft 438 kts 75°
2026-05-07 05:40 -0.20988 167.83964 26816 ft 440 kts 75°
2026-05-07 05:41 -0.20133 167.86888 27209 ft 443 kts 75°
2026-05-07 05:41 -0.19267 167.89853 27614 ft 446 kts 75°
2026-05-07 05:41 -0.18401 167.92821 27978 ft 449 kts 75°
2026-05-07 05:41 -0.17517 167.95845 28332 ft 452 kts 75°
2026-05-07 05:42 -0.16633 167.98868 28746 ft 454 kts 75°
2026-05-07 05:42 -0.15743 168.01909 29069 ft 458 kts 75°
2026-05-07 05:42 -0.14854 168.04944 29471 ft 459 kts 74°
2026-05-07 05:42 -0.13964 168.07983 30049 ft 457 kts 74°
2026-05-07 05:43 -0.13075 168.11020 30555 ft 455 kts 74°
2026-05-07 05:43 -0.12185 168.14064 30996 ft 456 kts 74°
2026-05-07 05:43 -0.11292 168.17120 31391 ft 457 kts 73°
2026-05-07 05:43 -0.10402 168.20161 31824 ft 457 kts 73°
2026-05-07 05:44 -0.09512 168.23204 32229 ft 457 kts 73°
2026-05-07 05:44 -0.08627 168.26225 32704 ft 456 kts 73°
2026-05-07 05:44 -0.07740 168.29260 33273 ft 453 kts 73°
2026-05-07 05:44 -0.06856 168.32288 33796 ft 451 kts 73°
2026-05-07 05:45 -0.05982 168.35281 34254 ft 450 kts 72°
2026-05-07 05:45 -0.05106 168.38277 34711 ft 449 kts 72°
2026-05-07 05:45 -0.04232 168.41269 34781 ft 452 kts 73°
2026-05-07 05:46 -0.02475 168.47276 34782 ft 447 kts 72°
2026-05-07 05:46 -0.00738 168.53212 34781 ft 448 kts 72°
2026-05-07 05:47 0.01013 168.59196 34781 ft 448 kts 73°
2026-05-07 05:47 0.02761 168.65176 34782 ft 448 kts 72°
2026-05-07 05:48 0.04505 168.71143 34783 ft 448 kts 72°
2026-05-07 05:48 0.06245 168.77094 34794 ft 448 kts 72°
2026-05-07 05:49 0.07994 168.83072 34802 ft 449 kts 72°
2026-05-07 05:49 0.09745 168.89058 34802 ft 448 kts 73°
2026-05-07 05:50 0.11487 168.95012 34802 ft 448 kts 73°
2026-05-07 05:50 0.13233 169.00980 34801 ft 447 kts 72°
2026-05-07 05:51 0.14983 169.06967 34800 ft 448 kts 72°
2026-05-07 05:51 0.16729 169.12944 34801 ft 448 kts 72°
2026-05-07 05:52 0.18470 169.18898 34800 ft 448 kts 72°
2026-05-07 05:52 0.20219 169.24872 34801 ft 448 kts 72°
2026-05-07 05:53 0.21964 169.30830 34800 ft 449 kts 72°
2026-05-07 05:53 0.23716 169.36819 34795 ft 447 kts 72°
2026-05-07 05:54 0.25454 169.42760 34791 ft 447 kts 72°
2026-05-07 05:54 0.27198 169.48726 34790 ft 447 kts 72°
2026-05-07 05:55 0.28935 169.54675 34788 ft 446 kts 72°
2026-05-07 05:55 0.30682 169.60655 34783 ft 447 kts 72°
2026-05-07 05:56 0.32414 169.66588 34780 ft 448 kts 72°
2026-05-07 05:56 0.34162 169.72566 34781 ft 447 kts 72°
2026-05-07 05:57 0.35899 169.78503 34782 ft 446 kts 72°
2026-05-07 05:57 0.37640 169.84454 34781 ft 445 kts 72°
2026-05-07 05:58 0.39375 169.90384 34780 ft 445 kts 72°
2026-05-07 05:58 0.41115 169.96333 34781 ft 445 kts 72°
2026-05-07 05:59 0.42858 170.02271 34781 ft 445 kts 72°
2026-05-07 05:59 0.44649 170.08179 34781 ft 444 kts 72°
2026-05-07 06:00 0.46465 170.14096 34784 ft 444 kts 71°
2026-05-07 06:00 0.48270 170.19980 34796 ft 444 kts 71°
2026-05-07 06:01 0.50070 170.25873 34803 ft 443 kts 72°
2026-05-07 06:01 0.51869 170.31769 34802 ft 442 kts 72°
2026-05-07 06:02 0.53652 170.37610 34803 ft 442 kts 72°
2026-05-07 06:02 0.55445 170.43491 34802 ft 443 kts 72°
2026-05-07 06:03 0.57237 170.49367 34802 ft 442 kts 72°
2026-05-07 06:03 0.59028 170.55243 34801 ft 442 kts 72°
2026-05-07 06:04 0.60823 170.61130 34803 ft 442 kts 72°
2026-05-07 06:04 0.62611 170.66989 34801 ft 441 kts 72°
2026-05-07 06:05 0.64396 170.72841 34803 ft 441 kts 72°
2026-05-07 06:05 0.66182 170.78703 34803 ft 440 kts 72°
2026-05-07 06:06 0.67963 170.84551 34803 ft 440 kts 72°
2026-05-07 06:06 0.69739 170.90382 34801 ft 440 kts 72°
2026-05-07 06:07 0.71524 170.96233 34803 ft 439 kts 72°
2026-05-07 06:07 0.73607 171.03065 34802 ft 440 kts 72°
2026-05-07 06:08 0.75105 171.07982 34802 ft 439 kts 72°
2026-05-07 06:08 0.76880 171.13806 34802 ft 439 kts 72°
2026-05-07 06:09 0.78657 171.19638 34802 ft 439 kts 72°
2026-05-07 06:09 0.80432 171.25467 34801 ft 438 kts 72°
2026-05-07 06:10 0.82214 171.31317 34801 ft 438 kts 72°
2026-05-07 06:10 0.83987 171.37140 34802 ft 439 kts 72°
2026-05-07 06:11 0.85756 171.42946 34802 ft 439 kts 72°
2026-05-07 06:11 0.87537 171.48793 34801 ft 440 kts 72°
2026-05-07 06:12 0.89317 171.54640 34626 ft 440 kts 73°
2026-05-07 06:12 0.90198 171.57533 34171 ft 435 kts 72°
2026-05-07 06:12 0.91078 171.60423 33625 ft 431 kts 72°
2026-05-07 06:12 0.91944 171.63269 33291 ft 422 kts 72°
2026-05-07 06:13 0.92783 171.66026 32890 ft 416 kts 72°
2026-05-07 06:13 0.93628 171.68803 32472 ft 410 kts 72°
2026-05-07 06:13 0.94442 171.71481 32030 ft 405 kts 72°
2026-05-07 06:13 0.95257 171.74162 31571 ft 401 kts 73°
2026-05-07 06:14 0.96069 171.76829 31110 ft 397 kts 73°
2026-05-07 06:14 0.96886 171.79511 30661 ft 408 kts 73°
2026-05-07 06:14 0.97724 171.82257 30137 ft 418 kts 73°
2026-05-07 06:14 0.98572 171.85036 29632 ft 416 kts 73°
2026-05-07 06:15 0.99403 171.87758 29149 ft 411 kts 73°
2026-05-07 06:15 1.00240 171.90503 28664 ft 407 kts 74°
2026-05-07 06:15 1.01055 171.93178 28193 ft 403 kts 74°
2026-05-07 06:15 1.01867 171.95845 27733 ft 399 kts 74°
2026-05-07 06:16 1.02665 171.98468 27268 ft 395 kts 74°
2026-05-07 06:16 1.03466 172.01105 26810 ft 391 kts 74°
2026-05-07 06:16 1.04261 172.03716 26348 ft 388 kts 74°
2026-05-07 06:16 1.05032 172.06256 25867 ft 382 kts 74°
2026-05-07 06:17 1.05800 172.08798 25002 ft 381 kts 74°
2026-05-07 06:17 1.06553 172.11299 24180 ft 379 kts 74°
2026-05-07 06:17 1.07308 172.13817 23385 ft 375 kts 74°
2026-05-07 06:17 1.08045 172.16270 22608 ft 372 kts 74°
2026-05-07 06:18 1.08781 172.18720 21888 ft 368 kts 74°
2026-05-07 06:18 1.09503 172.21123 21253 ft 362 kts 74°
2026-05-07 06:18 1.10234 172.23557 20404 ft 362 kts 73°
2026-05-07 06:18 1.10961 172.25975 19361 ft 367 kts 73°
2026-05-07 06:19 1.11697 172.28427 18304 ft 370 kts 73°
2026-05-07 06:19 1.12445 172.30914 17120 ft 375 kts 73°
2026-05-07 06:19 1.13201 172.33423 15899 ft 378 kts 73°
2026-05-07 06:19 1.13958 172.35939 14762 ft 378 kts 73°
2026-05-07 06:20 1.14718 172.38463 13740 ft 373 kts 73°
2026-05-07 06:20 1.15451 172.40898 12757 ft 369 kts 73°
2026-05-07 06:20 1.16187 172.43347 11878 ft 362 kts 73°
2026-05-07 06:20 1.16906 172.45738 11591 ft 360 kts 73°
2026-05-07 06:21 1.17621 172.48119 11346 ft 358 kts 73°
2026-05-07 06:21 1.18323 172.50456 11129 ft 335 kts 73°
2026-05-07 06:21 1.18980 172.52644 10762 ft 328 kts 73°
2026-05-07 06:21 1.19633 172.54823 10341 ft 324 kts 73°
2026-05-07 06:22 1.20280 172.56982 9930 ft 320 kts 73°
2026-05-07 06:22 1.21522 172.61121 9250 ft 310 kts 74°
2026-05-07 06:22 1.22137 172.63165 8843 ft 307 kts 74°
2026-05-07 06:23 1.22747 172.65193 8441 ft 304 kts 74°
2026-05-07 06:23 1.23350 172.67204 8053 ft 301 kts 74°
2026-05-07 06:23 1.23946 172.69188 7661 ft 298 kts 74°
2026-05-07 06:23 1.24538 172.71161 7278 ft 294 kts 74°
2026-05-07 06:24 1.25125 172.73112 6919 ft 290 kts 74°
2026-05-07 06:24 1.25700 172.75027 6543 ft 287 kts 74°
2026-05-07 06:24 1.26273 172.76938 6141 ft 285 kts 75°
2026-05-07 06:24 1.26840 172.78827 5770 ft 282 kts 75°
2026-05-07 06:25 1.27398 172.80682 5429 ft 278 kts 74°
2026-05-07 06:25 1.27948 172.82520 5081 ft 275 kts 75°
2026-05-07 06:25 1.28498 172.84348 4738 ft 271 kts 74°
2026-05-07 06:25 1.29042 172.86159 4381 ft 269 kts 75°
2026-05-07 06:26 1.29573 172.87929 4098 ft 264 kts 74°
2026-05-07 06:26 1.30094 172.89662 3994 ft 257 kts 74°
2026-05-07 06:26 1.30606 172.91368 3916 ft 256 kts 74°
2026-05-07 06:26 1.31122 172.93088 3834 ft 258 kts 74°
2026-05-07 06:27 1.31726 172.94739 3707 ft 244 kts 64°
2026-05-07 06:27 1.32735 172.96022 3597 ft 228 kts 37°
2026-05-07 06:27 1.34174 172.96587 3352 ft 223 kts 11°
2026-05-07 06:27 1.35721 172.96738 3058 ft 217 kts
2026-05-07 06:28 1.37179 172.96890 2843 ft 205 kts 11°
2026-05-07 06:28 1.38529 172.97141 2684 ft 188 kts 23°
2026-05-07 06:28 1.39544 172.97821 2528 ft 163 kts 57°
2026-05-07 06:28 1.39992 172.98825 2433 ft 159 kts 77°
2026-05-07 06:29 1.40108 172.99913 2325 ft 157 kts 94°
2026-05-07 06:29 1.39997 173.00638 2252 ft 157 kts 99°
2026-05-07 06:29 1.39769 173.02043 2082 ft 147 kts 96°
2026-05-07 06:29 1.39649 173.03033 2022 ft 145 kts 95°
2026-05-07 06:30 1.39526 173.04010 1902 ft 138 kts 96°
2026-05-07 06:30 1.39404 173.04950 1775 ft 134 kts 96°
2026-05-07 06:30 1.39283 173.05910 1652 ft 138 kts 96°
2026-05-07 06:30 1.39163 173.06857 1439 ft 136 kts 96°
2026-05-07 06:31 1.39041 173.07805 1247 ft 137 kts 96°
2026-05-07 06:31 1.38913 173.08763 1071 ft 137 kts 98°
2026-05-07 06:31 1.38744 173.09731 823 ft 142 kts 97°
2026-05-07 06:31 1.38635 173.10700 635 ft 139 kts 94°
2026-05-07 06:32 1.38540 173.11659 452 ft 140 kts 96°
2026-05-07 06:32 1.38409 173.12642 310 ft 141 kts 96°
2026-05-07 06:32 1.38300 173.13625 108 ft 143 kts 94°
2026-05-07 06:32 1.38184 173.14566 30 ft 117 kts 96°
2026-05-07 06:33 1.38114 173.15099 33 ft 42 kts 97°
2026-05-07 06:33 1.38098 173.15207 32 ft 5 kts 241°
2026-05-07 06:33 1.38102 173.15155 32 ft 14 kts 278°
2026-05-07 06:33 1.38125 173.14980 33 ft 35 kts 280°
2026-05-07 06:34 1.38157 173.14745 31 ft 27 kts 265°
2026-05-07 06:34 1.38074 173.14671 31 ft 14 kts 219°
2026-05-07 06:34 1.38053 173.14603 30 ft 7 kts 322°
2026-05-07 06:34 1.38062 173.14595 30 ft 0 kts 322°